STARLINK-35730 (66273 NORAD) Tracking and Keplerian Element Data

This shows tracking and keplerian element data for the satellite.

Feedback or suggestion? Click here.




ElementValue
Catalog66273
NameSTARLINK-35730
Epoch Orbit884
Epoch Day353.90023777
Epoch Year2025
RAAN203.7555
Inclination53.1582
Eccentricity0.0001501
Argument of Perigee66.4975
Mean Anonmoly293.6187
Mean Motion15.39597081
Decay Rate0.0002104
L11 66273U 25247J 25353.90023777 .00021040 00000+0 53494-3 0 9991
L22 66273 53.1582 203.7555 0001501 66.4975 293.6187 15.39597081 8845



Live tracking and technical data element details for STARLINK-35730 (NORAD 66273). STARLINK-35730 can be tracked NOW for your location showing map with azimuth and elevation plus other details from your city location.







IsCatalogInMostPopularTable: catalog: 66273, numindb: 3
Update: records affected: 1



GetName: 66273 STARLINK-35730

Hit Count: updated at: Sat, 07 Feb 2026 08:52:36 GMT